Memphis, TN

4:24 AM CDT on May 25, 2018 (GMT -0500)
Memphis International

Weather History for KMEM - April, 2014

Change the Weather History Date:

Thursday, April 17, 2014

  Actual Average Record
Temperature  
Mean Temperature 58 °F 63 °F  
Max Temperature 71 °F 74 °F 91 °F (2006)
Min Temperature 44 °F 53 °F 35 °F (1921)
Degree Days  
Heating Degree Days 7 4  
Month to date heating degree days 120 100  
Since 1 July heating degree days 3421 2908  
Cooling Degree Days 0 3  
Month to date cooling degree days 32 33  
Year to date cooling degree days 34 53  
Growing Degree Days 8 (Base 50)    
Moisture  
Dew Point 38 °F    
Average Humidity 51    
Maximum Humidity 70    
Minimum Humidity 31    
Precipitation  
Precipitation 0.00 in 0.20 in 1.61 in (1959)
Month to date precipitation 2.51 3.07  
Year to date precipitation 18.01 16.60  
Snow  
Snow 0.00 in 0.00 in - ()
Month to date snowfall 0.0 0.0  
Since 1 July snowfall 0.8 3.8  
Snow Depth 0.00 in    
Sea Level Pressure  
Sea Level Pressure 30.22 in    
Wind  
Wind Speed 6 mph (SSE)    
Max Wind Speed 14 mph    
Max Gust Speed 23 mph    
Visibility 10 miles    
Events      
T = Trace of Precipitation, MM = Missing Value Source: NWS Daily Summary

Daily Weather History Graph

Daily Weather History Graph

Search for Another Location

Airport or City:

Astronomy

Apr. 17, 2014 Rise Set
Actual Time 6:25 AM CDT 7:34 PM CDT
Civil Twilight 5:59 AM CDT 8:00 PM CDT
Nautical Twilight 5:28 AM CDT 8:31 PM CDT
Astronomical Twilight 4:55 AM CDT 9:03 PM CDT
Moon 10:15 PM CDT (4/17) 8:01 AM CDT (4/17)
Length of Visible Light 14h 01m
Length of Day
13h 08m
Waning Gibbous, 93% of the Moon is Illuminated
Apr 17
Waning Gibbous
Apr 22
Last Quarter
Apr 29
New
May 6
First Quarter
May 14
Full

Hourly Weather History & Observations

Time (CDT) Temp. Windchill Dew Point Humidity Pressure Visibility Wind Dir Wind Speed Gust Speed Precip Events Conditions
12:54 AM 46.9 °F - 32.0 °F 56% 30.19 in 10.0 mi South 5.8 mph - N/A   Mostly Cloudy
1:54 AM 48.0 °F - 32.0 °F 54% 30.18 in 10.0 mi South 6.9 mph - N/A   Scattered Clouds
2:54 AM 48.0 °F - 33.1 °F 56% 30.18 in 10.0 mi South 3.5 mph - N/A   Partly Cloudy
3:54 AM 48.9 °F - 34.0 °F 56% 30.19 in 10.0 mi SSE 5.8 mph - N/A   Clear
4:54 AM 46.0 °F 44.8 °F 33.1 °F 61% 30.20 in 10.0 mi ESE 3.5 mph - N/A   Clear
5:54 AM 45.0 °F 43.5 °F 34.0 °F 65% 30.21 in 10.0 mi SE 3.5 mph - N/A   Partly Cloudy
6:54 AM 45.0 °F 43.5 °F 35.1 °F 68% 30.24 in 10.0 mi East 3.5 mph - N/A   Partly Cloudy
7:54 AM 51.1 °F - 37.0 °F 59% 30.27 in 10.0 mi SSE 11.5 mph - N/A   Partly Cloudy
8:54 AM 55.9 °F - 39.0 °F 53% 30.28 in 10.0 mi SSE 11.5 mph - N/A   Partly Cloudy
9:54 AM 61.0 °F - 41.0 °F 48% 30.30 in 10.0 mi South 13.8 mph - N/A   Scattered Clouds
10:54 AM 64.4 °F - 42.8 °F 45% 30.30 in 10.0 mi South 9.2 mph - N/A   Mostly Cloudy
11:54 AM 66.0 °F - 42.1 °F 42% 30.28 in 10.0 mi SSE 9.2 mph - N/A   Mostly Cloudy
12:54 PM 66.0 °F - 39.0 °F 37% 30.25 in 10.0 mi SE 4.6 mph - N/A   Overcast
1:54 PM 69.1 °F - 41.0 °F 36% 30.23 in 10.0 mi SSE 10.4 mph - N/A   Mostly Cloudy
2:54 PM 70.0 °F - 41.0 °F 35% 30.22 in 10.0 mi South 6.9 mph - N/A   Mostly Cloudy
3:54 PM 69.1 °F - 37.9 °F 32% 30.20 in 10.0 mi SSE 6.9 mph - N/A   Mostly Cloudy
4:54 PM 70.0 °F - 39.9 °F 33% 30.19 in 10.0 mi SSE 9.2 mph 17.3 mph N/A   Overcast
5:54 PM 70.0 °F - 39.0 °F 32% 30.19 in 10.0 mi ESE 6.9 mph - N/A   Overcast
6:54 PM 68.0 °F - 39.0 °F 35% 30.19 in 10.0 mi SE 6.9 mph - N/A   Mostly Cloudy
7:54 PM 66.0 °F - 41.0 °F 40% 30.21 in 10.0 mi SE 8.1 mph - N/A   Mostly Cloudy
8:54 PM 63.0 °F - 42.1 °F 46% 30.22 in 10.0 mi SSE 3.5 mph - N/A   Mostly Cloudy
9:54 PM 63.0 °F - 42.1 °F 46% 30.22 in 10.0 mi SSE 5.8 mph - N/A   Mostly Cloudy
10:54 PM 62.1 °F - 42.1 °F 48% 30.21 in 10.0 mi Calm Calm - N/A   Scattered Clouds
11:54 PM 57.0 °F - 43.0 °F 59% 30.20 in 10.0 mi Calm Calm - N/A   Mostly Cloudy